Location: San Antonio
(29.4240°N, 98.4930°W)
Time: 10:15:04
(UTC-05:00)

ACS3 Solar Sail - Pass Details

Date: 19 June 2024
Orbit: 992 x 1023 km, 97.4° (Epoch: 12 July)

Event Time Altitude Azimuth Distance (km) Brightness Sun altitude
Exits shadow 00:28:32 22° 265° (W) 2,017 6.5 -34.8°
Maximum altitude 00:28:34 22° 266° (W) 2,017 6.5 -34.8°
Drops below altitude 10° 00:33:17 10° 315° (NW) 2,766 7.8 -35.1°
Sets 00:36:23 0° 330° (NNW) 3,715 8.8 -35.3°
